sat.trackr.live / text

‹ back to catalog

STARLINK-37033

NORAD 68959 · 2026-099J

PAYLOAD ACTIVE UNKNOWN

§ Identity

Operator
Country
US
Launch date
2026-05-01
Launch site
AFETR
Launch vehicle
Mass (kg)
RCS (m²)

Purposes: comms

External: N2YO · Heavens-Above · Gunter

§ Orbital elements

Epoch: 2026-09-19T23:33:15.990912Z

Period
93.85 min
Inclination
53.1554°
Eccentricity
0.0000746
Mean motion
15.34367994 rev/d
Perigee alt
462.3 km
Apogee alt
463.3 km
Semi-major
6,840.9 km
B*
6.2778e-4
RAAN
78.3111°
Arg perigee
44.8841°
Mean anomaly
315.2222°
Rev number
2,182

§ Raw data

STARLINK-370331 68959U 26099J   26262.98143508  .00020872  00000+0  62778-3 0  99902 68959  53.1554  78.3111 0000746  44.8841 315.2222 15.34367994 21820

JSON: /api/v1/satellites/68959 · /tle

For live sub-satellite position, see the globe view (requires WebGL).

§ Visibility from observer

Set your observer location to see the next 7 days of passes ≥ 10°. The values pass through the URL so the page stays shareable.

No JS? Fill the form by hand. The geolocation button needs JavaScript.